TIANWANG 1C (TW-1C)
1 40926U 15051B   18167.16264375  .00005849  00000-0  10956-3 0  9990
2 40926  97.1830 209.5098 0007707 281.8299 115.4213 15.49041720153159
TIANWANG 1B (TW-1B)
1 40927U 15051C   18167.18364168  .00005951  00000-0  11627-3 0  9994
2 40927  97.1917 209.3572 0008066 299.2217 103.7368 15.47812564153064
TIANWANG 1A (TW-1A)
1 40928U 15051D   18166.83370747 +.00001768 +00000-0 +48241-4 0  9991
2 40928 097.1854 200.8500 0010926 335.4318 078.6746 15.38712065152575
LAPAN A2
1 40931U 15052B   18166.36973665  .00000691  00000-0  70407-5 0  9996
2 40931   5.9962 163.0541 0014099 344.1685  15.8076 14.76578158146734
LQSAT
1 40958U 15057A   18166.80689766 -.00000012  00000-0  58308-5 0  9999
2 40958  97.9401 239.9782 0017914 346.1479  13.9227 14.73034173144640
CHUBUSAT 2
1 41338U 16012B   18166.84978112  .00000266  00000-0  14082-4 0  9994
2 41338  31.0039 322.1462 0013711  59.5637 300.6352 14.99985153127637
CHUBUSAT 3
1 41339U 16012C   18166.86370328 +.00000245 +00000-0 +12361-4 0  9997
2 41339 031.0125 320.6543 0013604 066.0926 294.1143 15.00172537127623
OUFTI-1
1 41458U 16025C   18167.17445689  .00002046  00000-0  10945-3 0  9997
2 41458  98.1375 229.9698 0170790 150.8176 210.2730 15.04666842117280
E-STAR-2
1 41459U 16025D   18167.11464799  .00002472  00000-0  13160-3 0  9990
2 41459  98.1371 229.7468 0172256 151.8931 209.1740 15.04397663117267
AAUSAT 4
1 41460U 16025E   18167.16072508  .00001856  00000-0  98967-4 0  9994
2 41460  98.1321 230.2962 0163472 147.4335 213.7114 15.05825231117331
NUSAT 1
1 41557U 16033B   18166.79715388  .00001018  00000-0  39927-4 0  9999
2 41557  97.4378 251.0165 0015032 162.1117 198.0655 15.28000785113940
BEESAT 4
1 41619U 16040W   18166.75419484 +.00001013 +00000-0 +47230-4 0  9991
2 41619 097.4151 229.9208 0010293 229.6889 130.3449 15.22121967097872
PRATHAM
1 41783U 16059A   18166.83780492 +.00000051 +00000-0 +19178-4 0  9993
2 41783 098.1175 228.4199 0034998 099.7008 260.8150 14.62926800091760
ALSAT 1N
1 41789U 16059G   18167.13798536  .00000071  00000-0  22530-4 0  9999
2 41789  98.1190 229.9362 0029810  90.9427 269.5210 14.64159356 91866
NAYIF 1
1 42017U 17008BX  18167.17739083  .00001147  00000-0  49642-4 0  9993
2 42017  97.4482 232.2407 0007247  37.0367 323.1369 15.24444038 73918
LILACSAT-1
1 42725U 98067ME  18167.02817125  .00018895  00000-0  16288-3 0  9998
2 42725  51.6362   4.0129 0004344 217.3372 142.7324 15.69303158 60337
MAX VALIER SAT
1 42778U 17036P   18166.93098372 +.00000799 +00000-0 +38720-4 0  9997
2 42778 097.4034 226.6649 0014396 076.8670 283.4172 15.21308725054313
